sat.trackr.live / text

‹ back to catalog

STARLINK-31308

NORAD 59153 · 2024-044B

PAYLOAD ACTIVE UNKNOWN

§ Identity

Operator
Country
US
Launch date
2024-03-04
Launch site
AFETR
Launch vehicle
Mass (kg)
RCS (m²)

Purposes: comms

External: N2YO · Heavens-Above · Gunter

§ Orbital elements

Epoch: 2026-09-20T15:35:56.012640Z

Period
94.27 min
Inclination
43.0032°
Eccentricity
0.0001353
Mean motion
15.27580503 rev/d
Perigee alt
482.1 km
Apogee alt
484.0 km
Semi-major
6,861.2 km
B*
3.1851e-5
RAAN
39.1591°
Arg perigee
264.5765°
Mean anomaly
95.4932°
Rev number
14,396

§ Raw data

STARLINK-313081 59153U 24044B   26263.64995385  .00000614  00000+0  31851-4 0  99972 59153  43.0032  39.1591 0001353 264.5765  95.4932 15.27580503143963

JSON: /api/v1/satellites/59153 · /tle

For live sub-satellite position, see the globe view (requires WebGL).

§ Visibility from observer

Set your observer location to see the next 7 days of passes ≥ 10°. The values pass through the URL so the page stays shareable.

No JS? Fill the form by hand. The geolocation button needs JavaScript.